Location: Newark
(7.1028°S, 35.3258°W)
Time: 13:48:59
(UTC+00:00)

Vanguard 3 - Pass Details

Date: 25 February 2020
Orbit: 508 x 3262 km, 33.3° (Epoch: 30 March)

Event Time Altitude Azimuth Distance (km) Brightness Sun altitude
Rises 17:02:48 0° 330° (NNW) 5,159 11.5 53.2°
Reaches altitude 10° 17:06:12 10° 339° (NNW) 4,522 11.2 52.4°
Maximum altitude 17:18:27 37° 42° (NE) 3,785 10.6 49.4°
Drops below altitude 10° 17:35:13 10° 101° (E) 6,190 11.3 45.2°
Sets 17:40:47 0° 108° (ESE) 7,220 11.6 43.9°
